shijiazhuang , China , ASIA

  • Monday
    May 27

    Sunny  Sunny

    82 °F  64 °F

    North  North

    4~5L   3~4L 

  • Tuesday
    May 28

    Sunny  Sunny

    91 °F  66 °F

    South  North

    3~4L    

  • Wednesday
    May 29

    Sunny  Cloudy

    93 °F  70 °F

    South  North

    3~4L    

  • Thursday
    May 30

    Cloudy  Sunny

    90 °F  64 °F

    North  North

    3~4L   3~4L 

  • Friday
    May 31

    Sunny  Sunny

    88 °F  66 °F

    Northwest  North

    3~4L    

  • Saturday
    June 1

    Sunny  Sunny

    91 °F  68 °F

    South  North

    3~4L    

  • Sunday
    June 2

    Sunny  Sunny

    99 °F  70 °F

    South  North

    3~4L    

Date   Weather Temperature Humidity Total_rain Visibility Wind
11:00 Sunny 80°F 27% 0mm 999.9km Northeast  3.4m/s
14:00 Sunny 82°F 19.3% 0mm 999.9km Northeast  2.8m/s
17:00 Sunny 80°F 23.4% 0mm 999.9km Southeast  2.0m/s
20:00 Sunny 72°F 42.3% 0mm 999.9km Southeast  1.0m/s
23:00 Sunny 72°F 46.5% 0mm 999.9km Southwest  0.6m/s
02:00 Sunny 65°F 58.8% 0mm 999.9km Southwest  1.9m/s
05:00 Sunny 66°F 64.8% 0mm 999.9km Southwest  1.3m/s
08:00 Sunny 72°F 48.1% 0mm 999.9km Southwest  1.4m/s
11:00 Sunny 85°F 24.1% 0mm 999.9km Southwest  2.6m/s
14:00 Sunny 91°F 21.7% 0mm 999.9km Southwest  2.1m/s
17:00 Sunny 91°F 22.1% 0mm 999.9km Southeast  3.4m/s
20:00 Sunny 78°F 33.5% 0mm 999.9km Southeast  2.3m/s
23:00 Sunny 74°F 42.1% 0mm 999.9km Southwest  1.0m/s
02:00 Sunny 71°F 50.6% 0mm 999.9km Southwest  1.1m/s
05:00 Sunny 67°F 59.7% 0mm 999.9km Southwest  0.7m/s
08:00 Sunny 75°F 50.2% 0mm 999.9km Northwest  1.2m/s
11:00 Sunny 89°F 32.9% 0mm 999.9km Southeast  1.3m/s
14:00 Sunny 93°F 27.4% 0mm 999.9km Southeast  3.1m/s
17:00 Sunny 91°F 30.9% 0mm 999.9km Southeast  2.9m/s
20:00 Sunny 83°F 42% 0mm 999.9km Southeast  1.5m/s
23:00 Cloudy 79°F 46.8% 0mm 999.9km Southwest  1.2m/s
02:00 Cloudy 73°F 59.2% 0mm 999.9km Southwest  0.7m/s
05:00 Cloudy 70°F 64% 0mm 999.9km Southwest  0.8m/s
08:00 Cloudy 75°F 50.5% 0mm 999.9km Northwest  1.8m/s
11:00 Cloudy 83°F 34% 0mm 999.9km Northeast  2.8m/s
14:00 Cloudy 86°F 35.4% 0mm 999.9km Northeast  2.7m/s
17:00 Cloudy 89°F 43.3% 0mm 999.9km Northeast  2.2m/s
20:00 Cloudy 78°F 46.7% 0mm 999.9km Northeast  1.3m/s
23:00 Sunny 73°F 54.3% 0mm 999.9km Northeast  1.1m/s
02:00 Sunny 68°F 62.5% 0mm 999.9km Northeast  0.7m/s
05:00 Sunny 65°F 54.5% 0mm 999.9km Northeast  0.2m/s
08:00 Sunny 70°F 51.6% 0mm 999.9km Northeast  0.7m/s
11:00 Sunny 83°F 31.3% 0mm 999.9km Northeast  1.9m/s
14:00 Sunny 87°F 30.7% 0mm 999.9km Southeast  3.8m/s
17:00 Sunny 83°F 35.3% 0mm 999.9km Southeast  2.7m/s
20:00 Sunny 83°F 44% 0mm 999.9km Southeast  1.8m/s
23:00 Sunny 76°F 46.5% 0mm 999.9km Southwest  1.6m/s
02:00 Sunny 73°F 57.5% 0mm 999.9km Southwest  0.7m/s
05:00 Sunny 67°F 51% 0mm 999.9km Southwest  0.4m/s
08:00 Sunny 74°F 48% 0mm 999.9km Northwest  1.2m/s
11:00 Sunny 85°F 39% 0mm 999.9km Northwest  2.7m/s
14:00 Sunny 87°F 37.8% 0mm 999.9km Southeast  2.5m/s
17:00 Sunny 91°F 36.5% 0mm 999.9km Southwest  3.3m/s
20:00 Sunny 86°F 47.1% 0mm 999.9km Southeast  1.6m/s
23:00 Sunny 74°F 49.6% 0mm 999.9km Southwest  0.9m/s
02:00 Sunny 70°F 61.4% 0mm 999.9km Southwest  2.1m/s
05:00 Sunny 68°F 53.2% 0mm 999.9km Southwest  1.2m/s
08:00 Sunny 74°F 50.7% 0mm 999.9km Northeast  2.1m/s
11:00 Sunny 90°F 29.7% 0mm 999.9km Southwest  2.1m/s
14:00 Sunny 98°F 35.1% 0mm 999.9km Southeast  2.8m/s
17:00 Sunny 96°F 37.2% 0mm 999.9km Southwest  2.0m/s
20:00 Sunny 87°F 43.2% 0mm 999.9km Southeast  2.4m/s
23:00 Sunny 81°F 59.7% 0mm 999.9km Southwest  0.8m/s
02:00 Sunny 72°F 67.2% 0mm 999.9km Southwest  1.1m/s
05:00 Sunny 70°F 70.2% 0mm 999.9km Southwest  0.9m/s